Weather in Kure

Japan     34°14′14″N   132°33′51″E
temp.,
°C
wind,
m/s
gust,
m/s
humid.,
%
clouds,
%
prec.,
mm/h
press.,
hPa
HPBL,
m
28 november, sun
sun2800:00+8nne46610 0.0 1034514
03:00+7nne44660 0.0 1034328
06:00+7nne44680 0.0 1034286
09:00+9nne45610 0.0 1035333
12:00+11ene23450 0.0 10331253
15:00+12ene12445 0.0 1032852
18:00+10e3358100 0.0 1032346
21:00+10ne2260100 0.0 1032341
29 november, mon
mon2900:00+9nne2164100 0.0 1032319
03:00+9ne1167100 0.0 1031290
06:00+8nne1169100 0.0 1031289
09:00+10nne126883 0.0 1030429
12:00+12wsw236664 0.0 1029661
15:00+13ssw24615 0.0 1027715
18:00+12wsw24655 0.0 1028599
21:00+12ene127125 0.0 1028252
30 november, tue
tue3000:00+11ene22766 0.0 1026243
03:00+10ne227883 0.0 1025165
06:00+11e3377100 0.0 1023235
09:00+14sse61168100 0.0 1021917
12:00+17s81466100 0.0 10151599
15:00+16sse101874100 0.1 10111572
18:00+15s111894100 13.5 10091263
21:00+13wsw61281100 20.6 1009730
1 december, wed
wed100:00+12w11147464 1.6 10101202
03:00+9w10146559 1.6 10131651
06:00+8w10156199 0.1 10142086
09:00+8wnw10145734 0.1 10161931
12:00+8wnw11155540 0.0 10161927
15:00+8wnw11155680 0.0 10162011
18:00+7wnw914555 0.0 10181703
21:00+7wnw710565 0.0 10201284
2 december, thu
thu200:00+7wnw68595 0.0 10201040
03:00+6wnw46605 0.0 1020848
06:00+6w23625 0.0 1020699
09:00+7w34625 0.0 1021781
12:00+10wsw475421 0.0 10191501
15:00+11w675038 0.0 10181858
18:00+10wsw675735 0.0 10191174
21:00+11wsw6959100 0.0 10201197